Location: Forst
(46.9333°N, 15.4333°E)
Time: 06:08:05
(UTC+00:00)

Helios 1A Rocket - Pass Details

Date: 01 December 2020
Orbit: 564 x 585 km, 98.3° (Epoch: 18 January)

Event Time Altitude Azimuth Distance (km) Brightness Sun altitude
Exits shadow 17:32:17 50° 351° (N) 730 3.3 -23.3°
Drops below altitude 10° 17:35:19 10° 347° (NNW) 1,871 5.6 -23.8°
Sets 17:37:28 0° 347° (NNW) 2,774 6.5 -24.2°
